When you browse on this site, cookies collect data to enhance your experience and personalize the content and advertising you see.
Visit our Privacy Policy to learn more. By continuing to use the site, you agree to this use of cookies and data.
  • In United Kingdom
  • List of Countries
  • For 7 days
  • Water Temperature
  • Weather Map
  • Weather Widgets
  • user-avatar
    Login

    Hourly Weather Dunaharaszti

    Today, 29 January, Wednesday

    Time Temperature Precipitation Wind Pressure Humidity
    00:00 +1°C° 0.2 mm 4 mps 745 mmHg 86%
    01:00 +1°C° 0.2 mm 4 mps 745 mmHg 85%
    02:00 +1°C° 0 mm 4 mps 745 mmHg 82%
    03:00 +1°C° 0 mm 4 mps 745 mmHg 79%
    04:00 0°C° 0 mm 4 mps 745 mmHg 76%
    05:00 0°C° 0 mm 4 mps 746 mmHg 79%
    06:00 0°C° 0 mm 4 mps 746 mmHg 82%
    07:00 0°C° 0 mm 3 mps 747 mmHg 85%
    08:00 0°C° 0 mm 4 mps 747 mmHg 84%
    09:00 +1°C° 0 mm 4 mps 747 mmHg 83%
    10:00 +3°C° 0 mm 4 mps 747 mmHg 82%
    11:00 +3°C° 0.3 mm 4 mps 747 mmHg 82%
    12:00 +3°C° 0.3 mm 4 mps 748 mmHg 83%
    13:00 +4°C° 0.3 mm 4 mps 748 mmHg 83%
    14:00 +3°C° 1.1 mm 4 mps 748 mmHg 84%
    15:00 +3°C° 1.1 mm 3 mps 748 mmHg 86%
    16:00 +2°C° 1.1 mm 3 mps 748 mmHg 87%
    17:00 +2°C° 0 mm 3 mps 748 mmHg 85%
    18:00 +2°C° 0 mm 3 mps 749 mmHg 83%
    19:00 +1°C° 0 mm 3 mps 749 mmHg 82%
    20:00 +1°C° 0 mm 3 mps 749 mmHg 80%
    21:00 +1°C° 0 mm 3 mps 750 mmHg 78%
    22:00 +1°C° 0 mm 3 mps 750 mmHg 77%
    23:00 0°C° 0 mm 4 mps 750 mmHg 79%

    Tomorrow, 30 January, Thursday

    Time Temperature Precipitation Wind Pressure Humidity
    00:00 0°C° 0 mm 4 mps 751 mmHg 82%
    01:00 0°C° 0 mm 5 mps 752 mmHg 85%
    02:00 0°C° 0 mm 5 mps 752 mmHg 84%
    03:00 0°C° 0 mm 5 mps 752 mmHg 82%
    04:00 0°C° 0 mm 4 mps 752 mmHg 81%
    05:00 -1°C° 0 mm 4 mps 753 mmHg 82%
    06:00 0°C° 0 mm 3 mps 753 mmHg 82%
    07:00 -1°C° 0 mm 3 mps 753 mmHg 82%
    08:00 -1°C° 0 mm 4 mps 753 mmHg 79%
    09:00 0°C° 0 mm 4 mps 753 mmHg 75%
    10:00 +1°C° 0 mm 5 mps 754 mmHg 71%
    11:00 +3°C° 0.1 mm 4 mps 753 mmHg 74%
    12:00 +3°C° 0.1 mm 4 mps 753 mmHg 76%
    13:00 +3°C° 0.1 mm 4 mps 753 mmHg 79%
    14:00 +4°C° 0 mm 4 mps 753 mmHg 75%
    15:00 +4°C° 0 mm 3 mps 752 mmHg 71%
    16:00 +4°C° 0 mm 3 mps 752 mmHg 67%
    17:00 +4°C° 0 mm 3 mps 752 mmHg 70%
    18:00 +3°C° 0 mm 3 mps 752 mmHg 72%
    19:00 +4°C° 0 mm 2 mps 752 mmHg 75%
    20:00 +3°C° 0 mm 2 mps 751 mmHg 77%
    21:00 +3°C° 0 mm 2 mps 751 mmHg 79%
    22:00 +2°C° 0 mm 3 mps 751 mmHg 81%
    23:00 +2°C° 0 mm 3 mps 750 mmHg 84%

    Day after tomorrow, 31 January, Friday

    Time Temperature Precipitation Wind Pressure Humidity
    00:00 +2°C° 0 mm 3 mps 750 mmHg 86%
    01:00 +2°C° 0 mm 3 mps 750 mmHg 89%
    02:00 +2°C° 0 mm 3 mps 749 mmHg 88%
    03:00 +2°C° 0 mm 3 mps 749 mmHg 88%
    04:00 +3°C° 0 mm 3 mps 748 mmHg 87%
    05:00 +3°C° 0 mm 3 mps 748 mmHg 86%
    06:00 +4°C° 0 mm 3 mps 748 mmHg 85%
    07:00 +4°C° 0 mm 4 mps 748 mmHg 84%
    08:00 +5°C° 0 mm 5 mps 748 mmHg 79%
    09:00 +4°C° 0 mm 6 mps 748 mmHg 74%
    10:00 +5°C° 0 mm 7 mps 748 mmHg 70%
    11:00 +6°C° 0 mm 7 mps 748 mmHg 69%
    12:00 +8°C° 0 mm 7 mps 748 mmHg 68%
    13:00 +10°C° 0 mm 8 mps 748 mmHg 67%
    14:00 +9°C° 0.1 mm 7 mps 748 mmHg 71%
    15:00 +9°C° 0.1 mm 6 mps 748 mmHg 75%
    16:00 +8°C° 0.1 mm 5 mps 749 mmHg 79%
    17:00 +8°C° 0 mm 4 mps 749 mmHg 83%
    18:00 +7°C° 0 mm 4 mps 750 mmHg 87%
    19:00 +8°C° 0 mm 3 mps 751 mmHg 91%
    20:00 +8°C° 0 mm 3 mps 751 mmHg 90%
    21:00 +8°C° 0 mm 3 mps 751 mmHg 90%
    22:00 +8°C° 0 mm 3 mps 751 mmHg 90%
    23:00 +7°C° 0 mm 3 mps 752 mmHg 90%

    1 February, Saturday

    Time Temperature Precipitation Wind Pressure Humidity
    00:00 +7°C° 0 mm 3 mps 752 mmHg 90%
    01:00 +5°C° 0 mm 3 mps 752 mmHg 90%
    02:00 +6°C° 0 mm 2 mps 752 mmHg 91%
    03:00 +6°C° 0 mm 2 mps 752 mmHg 91%
    04:00 +6°C° 0 mm 2 mps 752 mmHg 91%
    05:00 +6°C° 0 mm 2 mps 752 mmHg 90%
    06:00 +6°C° 0 mm 2 mps 752 mmHg 89%
    07:00 +5°C° 0 mm 2 mps 752 mmHg 88%
    08:00 +6°C° 0 mm 2 mps 752 mmHg 84%
    09:00 +7°C° 0 mm 2 mps 752 mmHg 80%
    10:00 +8°C° 0 mm 3 mps 753 mmHg 76%
    11:00 +9°C° 0 mm 3 mps 752 mmHg 74%
    12:00 +11°C° 0 mm 4 mps 752 mmHg 71%
    13:00 +12°C° 0 mm 5 mps 752 mmHg 68%
    14:00 +12°C° 0 mm 4 mps 751 mmHg 70%
    15:00 +12°C° 0 mm 4 mps 751 mmHg 73%
    16:00 +11°C° 0 mm 4 mps 750 mmHg 75%
    17:00 +11°C° 0 mm 3 mps 750 mmHg 79%
    18:00 +10°C° 0 mm 3 mps 750 mmHg 82%
    19:00 +9°C° 0 mm 3 mps 750 mmHg 86%
    20:00 +9°C° 0 mm 3 mps 749 mmHg 88%
    21:00 +8°C° 0 mm 3 mps 749 mmHg 89%
    22:00 +8°C° 0 mm 3 mps 749 mmHg 91%
    23:00 +8°C° 0.7 mm 3 mps 749 mmHg 88%

    2 February, Sunday

    Time Temperature Precipitation Wind Pressure Humidity
    00:00 +8°C° 0.7 mm 4 mps 749 mmHg 85%
    01:00 +8°C° 0.7 mm 4 mps 749 mmHg 83%
    02:00 +8°C° 0 mm 5 mps 749 mmHg 77%
    03:00 +8°C° 0 mm 6 mps 750 mmHg 71%
    04:00 +6°C° 0 mm 7 mps 750 mmHg 65%
    05:00 +6°C° 0 mm 7 mps 751 mmHg 65%
    06:00 +5°C° 0 mm 7 mps 752 mmHg 65%
    07:00 +5°C° 0 mm 7 mps 753 mmHg 65%
    08:00 +5°C° 0 mm 8 mps 754 mmHg 63%
    09:00 +6°C° 0 mm 8 mps 754 mmHg 61%
    10:00 +6°C° 0 mm 9 mps 755 mmHg 60%
    11:00 +7°C° 0 mm 9 mps 755 mmHg 58%
    12:00 +7°C° 0 mm 8 mps 755 mmHg 56%
    13:00 +9°C° 0 mm 8 mps 755 mmHg 54%
    14:00 +9°C° 0 mm 7 mps 755 mmHg 56%
    15:00 +8°C° 0 mm 5 mps 755 mmHg 57%
    16:00 +8°C° 0 mm 4 mps 755 mmHg 59%
    17:00 +8°C° 0 mm 3 mps 755 mmHg 61%
    18:00 +7°C° 0 mm 3 mps 755 mmHg 63%
    19:00 +7°C° 0 mm 3 mps 755 mmHg 65%
    20:00 +7°C° 0 mm 3 mps 755 mmHg 70%
    21:00 +7°C° 0 mm 3 mps 755 mmHg 76%
    22:00 +7°C° 0 mm 3 mps 755 mmHg 81%
    23:00 +7°C° 0.1 mm 3 mps 755 mmHg 82%

    3 February, Monday

    Time Temperature Precipitation Wind Pressure Humidity
    00:00 +7°C° 0.1 mm 3 mps 755 mmHg 84%
    01:00 +7°C° 0.1 mm 3 mps 755 mmHg 86%
    02:00 +7°C° 0.1 mm 3 mps 755 mmHg 84%
    03:00 +7°C° 0.1 mm 4 mps 755 mmHg 82%
    04:00 +7°C° 0.1 mm 4 mps 754 mmHg 80%
    05:00 +7°C° 0 mm 4 mps 754 mmHg 79%
    06:00 +7°C° 0 mm 4 mps 754 mmHg 77%
    07:00 +6°C° 0 mm 4 mps 754 mmHg 76%
    08:00 +7°C° 0 mm 5 mps 755 mmHg 75%
    09:00 +8°C° 0 mm 5 mps 755 mmHg 73%
    10:00 +9°C° 0 mm 6 mps 755 mmHg 72%
    11:00 +9°C° 0.3 mm 5 mps 755 mmHg 78%
    12:00 +8°C° 0.3 mm 5 mps 755 mmHg 84%
    13:00 +8°C° 0.3 mm 4 mps 755 mmHg 89%
    14:00 +8°C° 0.3 mm 4 mps 754 mmHg 90%
    15:00 +9°C° 0.3 mm 3 mps 754 mmHg 90%
    16:00 +9°C° 0.3 mm 3 mps 754 mmHg 91%
    17:00 +9°C° 0 mm 3 mps 754 mmHg 91%
    18:00 +9°C° 0 mm 3 mps 754 mmHg 91%
    19:00 +9°C° 0 mm 2 mps 754 mmHg 91%
    20:00 +8°C° 0 mm 2 mps 754 mmHg 89%
    21:00 +8°C° 0 mm 2 mps 754 mmHg 87%
    22:00 +8°C° 0 mm 2 mps 754 mmHg 85%
    23:00 +8°C° 0 mm 3 mps 753 mmHg 83%
    Show more